Location: Kergonan
(48.2337°N, 4.5518°W)
Time: 17:27:19
(UTC+00:00)

USA 238 - Pass Details

Date: 18 January 2020
Orbit: 1023 x 1189 km, 63.4° (Epoch: 10 February)

Event Time Altitude Azimuth Distance (km) Brightness Sun altitude
Exits shadow 06:17:26 19° 314° (NW) 2,416 5.1 -17.0°
Maximum altitude 06:22:51 71° 235° (SW) 1,215 3.8 -16.1°
Drops below altitude 10° 06:30:13 10° 153° (SSE) 3,088 6.7 -14.9°
Sets 06:32:59 0° 151° (SSE) 4,059 7.4 -14.5°
